Location: Gleizolles
(44.4833°N, 6.7667°E)
Time: 20:18:24
(UTC+00:00)

A-11 Canister half - Pass Details

Date: 30 June 2024
Orbit: 1524 x 1684 km, 47.3° (Epoch: 18 July)

Event Time Altitude Azimuth Distance (km) Brightness Sun altitude
Rises 12:48:28 0° 270° (W) 4,753 11.8 64.1°
Reaches altitude 10° 12:51:35 10° 272° (W) 3,750 11.4 63.7°
Maximum altitude 13:01:04 75° 358° (N) 1,580 10.1 62.5°
Drops below altitude 10° 13:10:22 10° 85° (E) 3,690 10.9 61.3°
Sets 13:13:25 0° 87° (E) 4,674 11.3 60.9°
